Regional Weather Roundup
Issued by NWS

Home | Current Version | Previous Version | Graphics & Text | Print | Product List | Glossary On
Versions: 1 2 3 4 5 6 7 8 9 10 11 12 13 14 15 16 17 18 19 20 21 22 23 24 25 26 27 28 29 30 31 32 33 34 35 36 37 38 39 40 41 42 43 44 45 46 47 48 49 50
604
ASUS45 KABQ 240410
RWRNM
NEW MEXICO REGIONAL WEATHER ROUNDUP
NATIONAL WEATHER SERVICE ALBUQUERQUE NM
1000 PM MDT TUE AUG 23 2016

NOTE: "FAIR" MEANS FEW OR NO CLOUDS BELOW 12,000 FEET AGL WITH NO
       SIGNIFICANT WEATHER OR OBSTRUCTIONS TO VISION.

      THIS PRODUCT IS RELEASED AS TWO VERSIONS.  ONE VERSION NEAR
      THE TOP OF THE HOUR CONTAINING PRELIMINARY DATA FROM ALBUQUERQUE
      AND OTHER STATIONS.  A FINAL VERSION WITH ADDITIONAL DATA IS
      ISSUED ABOUT 10 MINUTES AFTER THE HOUR.

NMZ501-503-504-510>518-240500-
NORTHWEST PLATEAU/NORTHCENTRAL MOUNTAINS

CITY           SKY/WX    TMP DP  RH WIND       PRES   REMARKS
FARMINGTON     CLOUDY    61  51  70 E3        30.23R
LOS ALAMOS     FAIR      60  47  64 E3        30.31R
SANTA FE       FAIR      60  48  64 N7        30.24R
TAOS           FAIR      52  43  71 N5        30.32R
ANGEL FIRE     FAIR      41  37  88 SW5       30.38S

$$
NMZ402-403-502-505>509-240500-
WESTCENTRAL MOUNTAINS/SOUTHWEST MOUNTAINS

CITY           SKY/WX    TMP DP  RH WIND       PRES   REMARKS
GALLUP         CLOUDY    53  51  93 CALM      30.32R
GRANTS         CLOUDY    59  48  68 NW7       30.32S
SILVER CITY    FAIR      64  43  45 NW12      30.21R

$$
NMZ407-409-411-412-240500-
SOUTHERN DESERTS

CITY           SKY/WX    TMP DP  RH WIND       PRES   REMARKS
LORDSBURG      FAIR      75  39  27 W10       30.14R
DEMING         FAIR      76  45  33 NW8       30.12R
LAS CRUCES     MOCLDY    78  57  48 SE7       30.14R
HOLLOMAN AFB   FAIR      77  58  51 S12       30.08R
ALAMOGORDO     FAIR      73  59  60 S9        30.12R
T OR C         FAIR      75  45  34 NW18      30.14R

$$
NMZ519>523-240500-
CENTRAL VALLEYS/CENTRAL HIGHLANDS

CITY           SKY/WX    TMP DP  RH WIND       PRES   REMARKS
ALBUQUERQUE    MOCLDY    71  47  42 N13       30.21R
DOUBLE EAGLE   MOCLDY    64  45  48 NW8       30.24R
MORIARTY ARPT  FAIR      63  45  52 NW12      30.24R
CLINES CORNERS FAIR      58  46  64 NW8       30.28R
BELEN          MOCLDY    69  42  37 NW13      30.19S
SOCORRO        FAIR      73  41  31 N9G24     30.16R

$$
NMZ524>526-539-540-240500-
SOUTHCENTRAL MOUNTAINS

CITY           SKY/WX    TMP DP  RH WIND       PRES   REMARKS
RUIDOSO          N/A     59  55  88 S7        30.30R

$$
NMZ527>531-240500-
NORTHEAST HIGHLANDS/NORTHEAST PLAINS

CITY           SKY/WX    TMP DP  RH WIND       PRES   REMARKS
LAS VEGAS      FAIR      60  40  47 W7        30.25S
RATON          FAIR      59  50  72 N20       30.21S
CLAYTON        FAIR      73  41  31 SW10      30.07R

$$
NMZ532>537-240500-
EASTCENTRAL PLAINS

CITY           SKY/WX    TMP DP  RH WIND       PRES   REMARKS
TUCUMCARI      MOCLDY    78  59  51 SW7       30.06R
CANNON AFB     FAIR      75  60  60 S13       30.10S
CLOVIS AIRPORT FAIR      72  55  56 S9        30.10S

$$
NMZ028-029-538-240500-
SOUTHEAST PLAINS

CITY           SKY/WX    TMP DP  RH WIND       PRES   REMARKS
ROSWELL        FAIR      69  64  84 S14       30.09R
ARTESIA        RAIN      66  66 100 S21       30.12S
CARLSBAD       LGT RAIN  68  63  84 N14G30    30.13R
HOBBS          LGT RAIN  70  57  64 SW10      30.14R


$$




USA.gov is the U.S. government's official web portal to all federal, state and local government web resources and services.